This demonstration page uses our WeatherBlox Daily Observations layout. Learn more.

Left ArrowRight Arrow

40.92501, -98.34201

Hourly Observations for February 23, 2022

Temp ( °F °C ) Dew Point ( °F °C ) Humidity (%) Winds ( mph kmh ) Pressure ( in mb ) Visibility ( mi km ) Precip ( " mm )
12:53 am 00:53 Partly Cloudy -3 -19.4 -12 -24.4 65 65 N 14 22 30.75 1041 10 16 0.00 0.00
1:53 am 01:53 Cloudy -2 -18.9 -11 -23.9 65 65 NNW 21 33 30.75 1041 10 16 0.00 0.00
2:53 am 02:53 Cloudy -2 -18.9 -11 -23.9 65 65 NNW 17 28 30.76 1042 10 16 0.00 0.00
3:53 am 03:53 Cloudy -2 -18.9 -12 -24.4 62 62 N 21 33 30.76 1042 10 16 0.00 0.00
4:53 am 04:53 Cloudy -2 -18.9 -11 -23.9 65 65 NNW 16 26 30.77 1042 10 16 0.00 0.00
5:53 am 05:53 Cloudy -2 -18.9 -11 -23.9 65 65 N 14 22 30.79 1043 10 16 0.00 0.00
6:53 am 06:53 Cloudy -2 -18.9 -12 -24.4 62 62 N 17 28 30.77 1042 10 16 0.00 0.00
7:53 am 07:53 Cloudy -2 -18.9 -12 -24.4 62 62 N 14 22 30.78 1042 10 16 0.00 0.00
8:53 am 08:53 Cloudy 0 -17.8 -12 -24.4 57 57 N 16 26 30.78 1042 10 16 0.00 0.00
9:53 am 09:53 Cloudy 2 -16.7 -10 -23.3 57 57 NNE 10 17 30.78 1042 10 16 0.00 0.00
10:53 am 10:53 Mostly Sunny 4 -15.6 -9 -22.8 54 54 N 13 20 30.77 1042 10 16 0.00 0.00
11:53 am 11:53 Sunny 7 -13.9 -8 -22.2 50 50 N 12 19 30.76 1042 10 16 0.00 0.00
12:53 pm 12:53 Sunny 10 -12.2 -8 -22.2 43 43 VRB 7 11 30.72 1040 10 16 0.00 0.00
1:53 pm 13:53 Sunny 12 -11.1 -8 -22.2 40 40 NE 13 20 30.66 1038 10 16 0.00 0.00
2:53 pm 14:53 Sunny 14 -10 -7 -21.7 38 38 NNE 13 20 30.62 1037 10 16 0.00 0.00
3:53 pm 15:53 Sunny 14 -10 -8 -22.2 36 36 NNE 12 19 30.60 1036 10 16 0.00 0.00
4:53 pm 16:53 Sunny 13 -10.6 -8 -22.2 38 38 NE 14 22 30.60 1036 10 16 0.00 0.00
5:53 pm 17:53 Sunny 10 -12.2 -9 -22.8 41 41 NNE 12 19 30.59 1036 10 16 0.00 0.00
6:53 pm 18:53 Clear 8 -13.3 -8 -22.2 47 47 NNE 10 17 30.61 1037 10 16 0.00 0.00
7:53 pm 19:53 Clear 6 -14.4 -8 -22.2 52 52 NNE 7 11 30.61 1037 10 16 0.00 0.00
8:53 pm 20:53 Clear 4 -15.6 -8 -22.2 57 57 NNE 10 17 30.60 1036 10 16 0.00 0.00
9:53 pm 21:53 Clear 3 -16.1 -8 -22.2 60 60 NNE 7 11 30.62 1037 10 16 0.00 0.00
10:53 pm 22:53 Clear 1 -17.2 -8 -22.2 65 65 NNE 7 11 30.61 1037 10 16 0.00 0.00
11:53 pm 23:53 Clear 0 -17.8 -8 -22.2 69 69 N 5 7 30.58 1036 10 16 0.00 0.00

Powered by AerisWeather